EZY24A LROP-LGKR

Flight info

Callsign EZY24A
Flight time 1h 24m
Altitude 36000
Route POLUN DCT TIMUR N731 LETNI DCT BITLA UN731 YNN G12 PARAX
Aircraft B736/M-SDE2E3FGHIRWXY/LB1

Departure

Time 2026-05-06 12:40
Airport Bucharest Henri Coandă International Airport (LROP)

Arrival

Time 2026-05-06 14:05
Airport Corfu Ioannis Kapodistrias International Airport (LGKR)
Time Latitude Longitude Altitude Speed Heading
2026-05-06 12:34 44.57132 26.08006 322 ft 2 kts 173°
2026-05-06 12:34 44.57149 26.08003 320 ft 2 kts 174°
2026-05-06 12:34 44.57165 26.08000 320 ft 2 kts 173°
2026-05-06 12:35 44.57181 26.07998 320 ft 2 kts 168°
2026-05-06 12:35 44.57194 26.07985 319 ft 2 kts 96°
2026-05-06 12:35 44.57194 26.07970 321 ft 1 kts 86°
2026-05-06 12:35 44.57194 26.07968 321 ft 0 kts 85°
2026-05-06 12:37 44.57196 26.07990 321 ft 7 kts 84°
2026-05-06 12:37 44.57204 26.08095 322 ft 14 kts 84°
2026-05-06 12:38 44.57215 26.08245 322 ft 17 kts 83°
2026-05-06 12:38 44.57226 26.08408 322 ft 17 kts 85°
2026-05-06 12:38 44.57250 26.08501 321 ft 0 kts 29°
2026-05-06 12:38 44.57261 26.08502 322 ft 6 kts
2026-05-06 12:39 44.57356 26.08487 322 ft 20 kts 355°
2026-05-06 12:39 44.57520 26.08464 322 ft 25 kts 354°
2026-05-06 12:39 44.57662 26.08497 322 ft 14 kts 65°
2026-05-06 12:39 44.57704 26.08999 321 ft 96 kts 84°
2026-05-06 12:40 44.57805 26.10283 459 ft 156 kts 85°
2026-05-06 12:40 44.57952 26.11837 1404 ft 157 kts 87°
2026-05-06 12:40 44.58051 26.13313 2564 ft 153 kts 89°
2026-05-06 12:40 44.58151 26.14805 3533 ft 154 kts 88°
2026-05-06 12:41 44.58266 26.16335 4259 ft 173 kts 85°
2026-05-06 12:41 44.58410 26.18219 4595 ft 212 kts 84°
2026-05-06 12:41 44.58585 26.20428 4900 ft 243 kts 83°
2026-05-06 12:41 44.58789 26.22924 5319 ft 271 kts 83°
2026-05-06 12:42 44.59011 26.25586 6326 ft 275 kts 82°
2026-05-06 12:42 44.59186 26.28260 7509 ft 278 kts 91°
2026-05-06 12:42 44.58650 26.30870 8620 ft 285 kts 118°
2026-05-06 12:42 44.57271 26.32915 9608 ft 296 kts 148°
2026-05-06 12:43 44.55339 26.33974 10550 ft 306 kts 168°
2026-05-06 12:43 44.53137 26.34399 10895 ft 335 kts 174°
2026-05-06 12:43 44.50711 26.34669 11125 ft 364 kts 176°
2026-05-06 12:43 44.48118 26.34953 11663 ft 380 kts 175°
2026-05-06 12:44 44.45432 26.35298 12147 ft 397 kts 174°
2026-05-06 12:44 44.42640 26.35624 12709 ft 408 kts 180°
2026-05-06 12:44 44.39881 26.34940 13479 ft 411 kts 201°
2026-05-06 12:44 44.37415 26.32936 14277 ft 412 kts 221°
2026-05-06 12:45 44.35531 26.29920 14880 ft 415 kts 239°
2026-05-06 12:45 44.34399 26.26220 15552 ft 416 kts 255°
2026-05-06 12:45 44.32820 26.18349 16794 ft 426 kts 256°
2026-05-06 12:46 44.32034 26.14338 17418 ft 429 kts 256°
2026-05-06 12:46 44.31228 26.10300 18032 ft 433 kts 255°
2026-05-06 12:46 44.30402 26.06239 18601 ft 437 kts 255°
2026-05-06 12:46 44.29557 26.02147 19157 ft 440 kts 255°
2026-05-06 12:47 44.28700 25.98032 19739 ft 442 kts 255°
2026-05-06 12:47 44.27837 25.93900 20294 ft 444 kts 255°
2026-05-06 12:47 44.26979 25.89803 20817 ft 447 kts 255°
2026-05-06 12:47 44.26103 25.85622 21328 ft 450 kts 255°
2026-05-06 12:48 44.25221 25.81419 21826 ft 453 kts 256°
2026-05-06 12:48 44.24348 25.77181 22321 ft 455 kts 258°
2026-05-06 12:48 44.23995 25.72810 22791 ft 454 kts 272°
2026-05-06 12:48 44.24011 25.68392 23325 ft 455 kts 272°
2026-05-06 12:49 44.24037 25.63956 23753 ft 458 kts 272°
2026-05-06 12:49 44.24046 25.59508 24156 ft 460 kts 272°
2026-05-06 12:49 44.24034 25.55034 24565 ft 462 kts 272°
2026-05-06 12:49 44.24006 25.50552 24981 ft 463 kts 271°
2026-05-06 12:50 44.23969 25.46061 25530 ft 461 kts 271°
2026-05-06 12:50 44.23928 25.41614 26188 ft 457 kts 272°
2026-05-06 12:50 44.23887 25.37259 26861 ft 452 kts 272°
2026-05-06 12:50 44.23846 25.32888 27501 ft 450 kts 272°
2026-05-06 12:51 44.23804 25.28523 28102 ft 448 kts 272°
2026-05-06 12:51 44.23535 25.24187 28694 ft 452 kts 260°
2026-05-06 12:51 44.22462 25.20053 29338 ft 457 kts 245°
2026-05-06 12:51 44.20684 25.16372 30049 ft 458 kts 237°
2026-05-06 12:52 44.18739 25.12855 30562 ft 458 kts 236°
2026-05-06 12:52 44.16752 25.09356 30896 ft 462 kts 236°
2026-05-06 12:52 44.14749 25.05835 31148 ft 466 kts 236°
2026-05-06 12:52 44.12737 25.02272 31442 ft 469 kts 236°
2026-05-06 12:53 44.10726 24.98681 31813 ft 470 kts 237°
2026-05-06 12:53 44.08731 24.95098 32305 ft 467 kts 237°
2026-05-06 12:53 44.06751 24.91530 32794 ft 465 kts 237°
2026-05-06 12:53 44.04780 24.87973 33240 ft 464 kts 237°
2026-05-06 12:54 44.02837 24.84467 33628 ft 463 kts 237°
2026-05-06 12:54 44.00873 24.80925 34038 ft 462 kts 237°
2026-05-06 12:54 43.98911 24.77395 34409 ft 461 kts 237°
2026-05-06 12:54 43.96956 24.73882 34774 ft 459 kts 237°
2026-05-06 12:55 43.95002 24.70375 35108 ft 458 kts 237°
2026-05-06 12:55 43.93050 24.66878 35434 ft 458 kts 237°
2026-05-06 12:55 43.91101 24.63389 35776 ft 456 kts 237°
2026-05-06 12:55 43.89158 24.59915 36009 ft 458 kts 237°
2026-05-06 12:56 43.87199 24.56414 35991 ft 460 kts 237°
2026-05-06 12:56 43.83285 24.49441 35992 ft 456 kts 237°
2026-05-06 12:57 43.79403 24.42541 36001 ft 453 kts 237°
2026-05-06 12:57 43.75542 24.35688 36003 ft 451 kts 237°
2026-05-06 12:58 43.71675 24.28839 36009 ft 455 kts 237°
2026-05-06 12:58 43.67449 24.22178 35993 ft 469 kts 225°
2026-05-06 12:59 43.62336 24.16649 35992 ft 470 kts 221°
2026-05-06 12:59 43.57123 24.11192 35986 ft 469 kts 222°
2026-05-06 13:00 43.51962 24.05707 35990 ft 468 kts 222°
2026-05-06 13:00 43.46827 24.00203 35996 ft 467 kts 222°
2026-05-06 13:01 43.41697 23.94709 35992 ft 467 kts 222°
2026-05-06 13:01 43.36570 23.89234 35990 ft 466 kts 222°
2026-05-06 13:02 43.31448 23.83777 35997 ft 465 kts 222°
2026-05-06 13:02 43.26321 23.78352 35990 ft 465 kts 221°
2026-05-06 13:03 43.21183 23.73046 36004 ft 465 kts 221°
2026-05-06 13:03 43.15999 23.67727 36006 ft 464 kts 221°
2026-05-06 13:04 43.10824 23.62414 36006 ft 464 kts 221°
2026-05-06 13:04 43.05661 23.57114 36012 ft 464 kts 221°
2026-05-06 13:05 43.00520 23.51845 36007 ft 464 kts 221°
2026-05-06 13:05 42.95403 23.46613 36013 ft 463 kts 221°
2026-05-06 13:06 42.90243 23.41347 36009 ft 463 kts 221°
2026-05-06 13:06 42.85082 23.36093 36013 ft 462 kts 221°
2026-05-06 13:07 42.79929 23.30859 36011 ft 462 kts 221°
2026-05-06 13:07 42.74778 23.25636 36024 ft 461 kts 221°
2026-05-06 13:08 42.69629 23.20427 36018 ft 461 kts 221°
2026-05-06 13:08 42.64514 23.15263 36016 ft 461 kts 221°
2026-05-06 13:09 42.59359 23.10070 36024 ft 461 kts 221°
2026-05-06 13:09 42.54200 23.04885 36016 ft 461 kts 220°
2026-05-06 13:10 42.49047 22.99715 36015 ft 461 kts 220°
2026-05-06 13:10 42.43899 22.94561 36018 ft 460 kts 220°
2026-05-06 13:11 42.38747 22.89414 36015 ft 460 kts 220°
2026-05-06 13:11 42.33591 22.84275 36019 ft 460 kts 220°
2026-05-06 13:12 42.28432 22.79142 36016 ft 460 kts 220°
2026-05-06 13:12 42.23278 22.74024 36020 ft 460 kts 220°
2026-05-06 13:13 42.18158 22.68951 36034 ft 459 kts 220°
2026-05-06 13:13 42.12997 22.63846 36023 ft 459 kts 220°
2026-05-06 13:14 42.07857 22.58738 36018 ft 459 kts 221°
2026-05-06 13:14 42.02820 22.53488 36025 ft 457 kts 222°
2026-05-06 13:15 41.97811 22.48214 36028 ft 457 kts 222°
2026-05-06 13:15 41.92786 22.42957 36014 ft 457 kts 221°
2026-05-06 13:16 41.87782 22.37753 36024 ft 457 kts 221°
2026-05-06 13:16 41.82753 22.32542 36024 ft 456 kts 221°
2026-05-06 13:17 41.77726 22.27342 36013 ft 456 kts 221°
2026-05-06 13:17 41.72701 22.22156 36012 ft 455 kts 221°
2026-05-06 13:18 41.67678 22.16981 35996 ft 455 kts 221°
2026-05-06 13:18 41.62664 22.11825 36002 ft 454 kts 221°
2026-05-06 13:19 41.57685 22.06716 35992 ft 454 kts 221°
2026-05-06 13:19 41.52680 22.01591 36001 ft 453 kts 221°
2026-05-06 13:20 41.47674 21.96473 36003 ft 453 kts 221°
2026-05-06 13:20 41.42669 21.91368 36002 ft 453 kts 221°
2026-05-06 13:21 41.37668 21.86278 36009 ft 452 kts 221°
2026-05-06 13:21 41.33515 21.82058 36000 ft 451 kts 221°
2026-05-06 13:22 41.27710 21.76170 36021 ft 451 kts 221°
2026-05-06 13:22 41.22714 21.71114 36014 ft 452 kts 221°
2026-05-06 13:23 41.18523 21.66880 36024 ft 451 kts 221°
2026-05-06 13:23 41.13523 21.61839 36023 ft 451 kts 220°
2026-05-06 13:24 41.08556 21.56839 36035 ft 451 kts 220°
2026-05-06 13:24 41.03563 21.51823 36024 ft 451 kts 220°
2026-05-06 13:25 40.98560 21.46807 36029 ft 450 kts 220°
2026-05-06 13:25 40.93563 21.41806 36034 ft 449 kts 220°
2026-05-06 13:26 40.88366 21.37204 36037 ft 454 kts 209°
2026-05-06 13:26 40.82325 21.34620 36040 ft 462 kts 193°
2026-05-06 13:27 40.75955 21.33426 36052 ft 463 kts 191°
2026-05-06 13:27 40.69569 21.32276 36047 ft 462 kts 192°
2026-05-06 13:28 40.63246 21.31065 36052 ft 462 kts 192°
2026-05-06 13:28 40.56890 21.29823 36043 ft 462 kts 192°
2026-05-06 13:29 40.50528 21.28584 36041 ft 462 kts 192°
2026-05-06 13:29 40.44248 21.26984 36040 ft 457 kts 202°
2026-05-06 13:30 40.38477 21.23650 36044 ft 452 kts 209°
2026-05-06 13:30 40.32793 21.20079 36047 ft 452 kts 209°
2026-05-06 13:31 40.27100 21.16559 36047 ft 452 kts 209°
2026-05-06 13:31 40.21393 21.13079 36055 ft 452 kts 208°
2026-05-06 13:32 40.15686 21.09621 36062 ft 452 kts 208°
2026-05-06 13:32 40.10016 21.06189 36070 ft 452 kts 208°
2026-05-06 13:33 40.04306 21.02738 36073 ft 451 kts 208°
2026-05-06 13:33 39.98606 20.99299 36075 ft 451 kts 208°
2026-05-06 13:34 39.92945 20.95891 36083 ft 444 kts 208°
2026-05-06 13:34 39.87344 20.92523 36095 ft 443 kts 208°
2026-05-06 13:34 39.84563 20.90851 35513 ft 450 kts 208°
2026-05-06 13:35 39.81722 20.89146 34786 ft 448 kts 208°
2026-05-06 13:35 39.78886 20.87446 33906 ft 449 kts 208°
2026-05-06 13:35 39.76050 20.85748 32921 ft 449 kts 208°
2026-05-06 13:35 39.73257 20.83951 31971 ft 446 kts 216°
2026-05-06 13:36 39.70841 20.81474 31031 ft 440 kts 228°
2026-05-06 13:36 39.68894 20.78462 30356 ft 431 kts 238°
2026-05-06 13:36 39.67480 20.75081 29609 ft 422 kts 248°
2026-05-06 13:36 39.66333 20.71608 28922 ft 416 kts 249°
2026-05-06 13:37 39.65213 20.68180 28261 ft 410 kts 249°
2026-05-06 13:37 39.64096 20.64796 27595 ft 405 kts 249°
2026-05-06 13:37 39.62980 20.61459 26957 ft 401 kts 249°
2026-05-06 13:37 39.61878 20.58198 26336 ft 398 kts 248°
2026-05-06 13:38 39.60766 20.54927 25712 ft 395 kts 248°
2026-05-06 13:38 39.59660 20.51681 25080 ft 392 kts 248°
2026-05-06 13:38 39.58556 20.48448 24481 ft 393 kts 248°
2026-05-06 13:38 39.57447 20.45201 23836 ft 395 kts 248°
2026-05-06 13:39 39.56328 20.41932 23125 ft 398 kts 248°
2026-05-06 13:39 39.55199 20.38639 22447 ft 399 kts 248°
2026-05-06 13:39 39.54072 20.35357 21791 ft 396 kts 248°
2026-05-06 13:39 39.52959 20.32122 21167 ft 391 kts 248°
2026-05-06 13:40 39.51859 20.28928 20557 ft 386 kts 248°
2026-05-06 13:40 39.50821 20.25915 19995 ft 383 kts 248°
2026-05-06 13:40 39.49715 20.22703 19383 ft 379 kts 248°
2026-05-06 13:40 39.48645 20.19600 18793 ft 376 kts 248°
2026-05-06 13:41 39.47581 20.16515 18164 ft 374 kts 248°
2026-05-06 13:41 39.46524 20.13456 17510 ft 371 kts 247°
2026-05-06 13:41 39.45475 20.10426 16908 ft 367 kts 247°
2026-05-06 13:41 39.44504 20.07402 16324 ft 362 kts 252°
2026-05-06 13:42 39.43901 20.04263 15763 ft 357 kts 260°
2026-05-06 13:42 39.43472 20.01111 15206 ft 354 kts 261°
2026-05-06 13:42 39.43063 19.97989 14659 ft 351 kts 261°
2026-05-06 13:42 39.42654 19.94884 14109 ft 348 kts 261°
2026-05-06 13:43 39.42243 19.91809 13513 ft 346 kts 261°
2026-05-06 13:43 39.41832 19.88788 12923 ft 335 kts 260°
2026-05-06 13:43 39.41432 19.85873 12405 ft 324 kts 260°
2026-05-06 13:43 39.41042 19.83050 11886 ft 314 kts 260°
2026-05-06 13:44 39.40661 19.80307 11391 ft 305 kts 260°
2026-05-06 13:44 39.40290 19.77639 10916 ft 297 kts 260°
2026-05-06 13:44 39.39932 19.75071 10725 ft 284 kts 260°
2026-05-06 13:44 39.39583 19.72569 10598 ft 282 kts 260°
2026-05-06 13:45 39.39236 19.70086 10479 ft 279 kts 260°
2026-05-06 13:45 39.38563 19.65288 10232 ft 264 kts 260°
2026-05-06 13:45 39.38241 19.62996 10134 ft 255 kts 260°
2026-05-06 13:46 39.37925 19.60756 10105 ft 251 kts 260°
2026-05-06 13:46 39.37615 19.58540 10104 ft 250 kts 262°
2026-05-06 13:46 39.37660 19.56307 10097 ft 252 kts 282°
2026-05-06 13:46 39.38313 19.54196 10102 ft 256 kts 299°
2026-05-06 13:47 39.39420 19.52400 10029 ft 256 kts 315°
2026-05-06 13:47 39.40796 19.50961 9740 ft 256 kts 322°
2026-05-06 13:47 39.42332 19.49765 9345 ft 259 kts 329°
2026-05-06 13:47 39.43955 19.48729 9015 ft 260 kts 332°
2026-05-06 13:48 39.45588 19.47800 8726 ft 259 kts 334°
2026-05-06 13:48 39.47257 19.46914 8413 ft 259 kts 336°
2026-05-06 13:48 39.48943 19.46081 8108 ft 259 kts 338°
2026-05-06 13:48 39.50649 19.45343 7823 ft 258 kts 341°
2026-05-06 13:49 39.52390 19.44739 7507 ft 260 kts 348°
2026-05-06 13:49 39.54173 19.45008 7182 ft 264 kts 24°
2026-05-06 13:49 39.55515 19.46585 6924 ft 265 kts 61°
2026-05-06 13:49 39.55935 19.48872 6650 ft 262 kts 91°
2026-05-06 13:50 39.55930 19.51238 6359 ft 262 kts 88°
2026-05-06 13:50 39.56067 19.53590 6068 ft 262 kts 84°
2026-05-06 13:50 39.56296 19.55886 5832 ft 259 kts 82°
2026-05-06 13:50 39.56567 19.58195 5515 ft 259 kts 82°
2026-05-06 13:51 39.56665 19.60505 5234 ft 256 kts 101°
2026-05-06 13:51 39.55987 19.62592 5059 ft 250 kts 130°
2026-05-06 13:51 39.54659 19.64001 5008 ft 248 kts 157°
2026-05-06 13:51 39.52996 19.64437 5003 ft 243 kts 185°
2026-05-06 13:52 39.51399 19.63819 4995 ft 240 kts 212°
2026-05-06 13:52 39.50202 19.62338 4999 ft 239 kts 236°
2026-05-06 13:52 39.49597 19.60342 4982 ft 241 kts 264°
2026-05-06 13:52 39.49860 19.58212 5000 ft 244 kts 292°
2026-05-06 13:53 39.50863 19.56473 5000 ft 248 kts 319°
2026-05-06 13:53 39.52405 19.55467 4993 ft 253 kts 346°
2026-05-06 13:53 39.54159 19.55511 4992 ft 256 kts 15°
2026-05-06 13:53 39.55691 19.56665 4980 ft 258 kts 46°
2026-05-06 13:54 39.56595 19.58636 4997 ft 256 kts 72°
2026-05-06 13:54 39.57362 19.60726 4880 ft 261 kts 49°
2026-05-06 13:54 39.58680 19.62345 4838 ft 262 kts 42°
2026-05-06 13:54 39.60031 19.63939 4708 ft 262 kts 43°
2026-05-06 13:55 39.61351 19.65549 4606 ft 259 kts 44°
2026-05-06 13:55 39.62640 19.67163 4498 ft 255 kts 45°
2026-05-06 13:55 39.63894 19.68764 4398 ft 251 kts 45°
2026-05-06 13:55 39.65131 19.70362 4306 ft 251 kts 45°
2026-05-06 13:56 39.66365 19.71971 4192 ft 251 kts 45°
2026-05-06 13:56 39.67595 19.73585 4099 ft 252 kts 46°
2026-05-06 13:56 39.68807 19.75182 3979 ft 241 kts 46°
2026-05-06 13:56 39.69946 19.76686 3895 ft 224 kts 46°
2026-05-06 13:57 39.70993 19.78072 3811 ft 205 kts 46°
2026-05-06 13:57 39.71939 19.79336 3812 ft 193 kts 46°
2026-05-06 13:57 39.72865 19.80581 3911 ft 188 kts 47°
2026-05-06 13:57 39.73806 19.81821 4155 ft 202 kts 46°
2026-05-06 13:58 39.74796 19.83099 4241 ft 196 kts 45°
2026-05-06 13:58 39.75750 19.84322 4018 ft 191 kts 44°
2026-05-06 13:58 39.76695 19.85512 3720 ft 186 kts 44°
2026-05-06 13:58 39.77640 19.86643 3237 ft 183 kts 44°
2026-05-06 13:59 39.78470 19.87831 3000 ft 175 kts 61°
2026-05-06 13:59 39.78780 19.89285 2763 ft 161 kts 94°
2026-05-06 13:59 39.78468 19.90584 2617 ft 146 kts 127°
2026-05-06 13:59 39.77742 19.91391 2589 ft 130 kts 154°
2026-05-06 14:00 39.76905 19.91722 2756 ft 124 kts 174°
2026-05-06 14:00 39.76044 19.91651 2704 ft 125 kts 188°
2026-05-06 14:00 39.75184 19.91486 2597 ft 126 kts 187°
2026-05-06 14:00 39.74274 19.91336 2691 ft 136 kts 187°
2026-05-06 14:01 39.73305 19.91178 2675 ft 144 kts 187°
2026-05-06 14:01 39.72278 19.91041 2604 ft 147 kts 185°
2026-05-06 14:01 39.71282 19.90929 2329 ft 143 kts 185°
2026-05-06 14:01 39.70302 19.90856 2025 ft 140 kts 182°
2026-05-06 14:02 39.69342 19.90824 1762 ft 136 kts 181°
2026-05-06 14:02 39.68409 19.90808 1530 ft 133 kts 182°
2026-05-06 14:02 39.67497 19.90765 1352 ft 132 kts 181°
2026-05-06 14:02 39.66590 19.90731 1287 ft 129 kts 181°
2026-05-06 14:03 39.65677 19.90693 1147 ft 134 kts 182°
2026-05-06 14:03 39.64725 19.90633 914 ft 140 kts 181°
2026-05-06 14:03 39.63762 19.90601 707 ft 136 kts 178°
2026-05-06 14:03 39.62833 19.90627 515 ft 132 kts 174°
2026-05-06 14:04 39.61922 19.90761 260 ft 131 kts 167°
2026-05-06 14:04 39.61040 19.90990 61 ft 126 kts 166°
2026-05-06 14:04 39.60244 19.91204 21 ft 101 kts 169°
2026-05-06 14:04 39.59692 19.91343 19 ft 66 kts 168°
2026-05-06 14:05 39.59296 19.91447 18 ft 31 kts 169°
2026-05-06 14:05 39.59166 19.91444 18 ft 8 kts 163°
2026-05-06 14:05 39.59181 19.91487 18 ft 12 kts 354°
2026-05-06 14:05 39.59305 19.91445 16 ft 21 kts 349°
2026-05-06 14:06 39.59469 19.91403 18 ft 29 kts 348°
2026-05-06 14:06 39.59701 19.91342 21 ft 39 kts 349°
2026-05-06 14:06 39.59996 19.91266 20 ft 48 kts 348°
2026-05-06 14:06 39.60326 19.91180 20 ft 48 kts 348°
2026-05-06 14:07 39.60579 19.91197 19 ft 19 kts 34°
2026-05-06 14:07 39.60574 19.91306 18 ft 13 kts 134°
2026-05-06 14:07 39.60552 19.91387 18 ft 10 kts 78°
2026-05-06 14:07 39.60554 19.91397 20 ft 0 kts 78°